TimeCST,TemperatureF,Dew PointF,Humidity,Sea Level PressureIn,VisibilityMPH,Wind Direction,Wind SpeedMPH,Gust SpeedMPH,PrecipitationIn,Events,Conditions,WindDirDegrees,DateUTC
12:16 AM,3.2,-2.2,78,30.10,10.0,WNW,3.5,-,N/A,,Overcast,300,2014-01-15 06:16:00
12:36 AM,3.2,-2.2,78,30.08,10.0,NW,4.6,-,N/A,,Overcast,310,2014-01-15 06:36:00
12:56 AM,3.2,-2.2,78,30.07,10.0,WNW,4.6,-,N/A,,Overcast,290,2014-01-15 06:56:00
1:16 AM,3.2,-2.2,78,30.06,7.0,Calm,Calm,-,N/A,Snow,Light Snow,0,2014-01-15 07:16:00
1:36 AM,3.2,-0.4,85,30.05,7.0,WNW,3.5,-,N/A,Snow,Light Snow,290,2014-01-15 07:36:00
1:56 AM,3.2,-0.4,85,30.06,10.0,Calm,Calm,-,N/A,,Overcast,0,2014-01-15 07:56:00
2:16 AM,3.2,-0.4,85,30.06,10.0,Calm,Calm,-,N/A,Snow,Light Snow,0,2014-01-15 08:16:00
2:36 AM,3.2,-0.4,85,30.06,10.0,Calm,Calm,-,N/A,,Overcast,0,2014-01-15 08:36:00
2:56 AM,3.2,-0.4,85,30.05,10.0,Calm,Calm,-,N/A,,Overcast,0,2014-01-15 08:56:00
3:16 AM,1.4,-2.2,85,30.05,10.0,Calm,Calm,-,N/A,,Mostly Cloudy,0,2014-01-15 09:16:00
3:36 AM,1.4,-2.2,85,30.04,10.0,Calm,Calm,-,N/A,,Mostly Cloudy,0,2014-01-15 09:36:00
3:56 AM,-2.2,-4.0,92,30.05,10.0,Calm,Calm,-,N/A,,Scattered Clouds,0,2014-01-15 09:56:00
4:16 AM,-4.0,-7.6,85,30.05,10.0,Calm,Calm,-,N/A,,Clear,0,2014-01-15 10:16:00
4:36 AM,-5.8,-9.4,84,30.04,10.0,Calm,Calm,-,N/A,,Clear,0,2014-01-15 10:36:00
4:56 AM,-7.6,-11.2,84,30.03,10.0,Calm,Calm,-,N/A,,Clear,0,2014-01-15 10:56:00
5:16 AM,-9.4,-13.0,84,30.03,10.0,Calm,Calm,-,N/A,,Clear,0,2014-01-15 11:16:00
5:37 AM,-9.4,-14.8,77,30.02,10.0,Calm,Calm,-,N/A,,Clear,0,2014-01-15 11:37:00
5:56 AM,-11.2,-14.8,84,30.01,10.0,Calm,Calm,-,N/A,,Clear,0,2014-01-15 11:56:00
6:16 AM,-13.0,-16.6,84,30.01,10.0,Calm,Calm,-,N/A,,Clear,0,2014-01-15 12:16:00
6:36 AM,-13.0,-16.6,84,30.01,10.0,Calm,Calm,-,N/A,,Clear,0,2014-01-15 12:36:00
6:56 AM,-14.8,-18.4,84,30.00,10.0,Calm,Calm,-,N/A,,Clear,0,2014-01-15 12:56:00
7:16 AM,-14.8,-18.4,84,29.98,10.0,Calm,Calm,-,N/A,,Clear,0,2014-01-15 13:16:00
7:36 AM,-16.6,-20.2,84,29.97,10.0,Calm,Calm,-,N/A,,Clear,0,2014-01-15 13:36:00
7:56 AM,-16.6,-22.0,76,29.96,10.0,Calm,Calm,-,N/A,,Clear,0,2014-01-15 13:56:00
8:16 AM,-16.6,-20.2,84,29.97,10.0,Calm,Calm,-,N/A,,Clear,0,2014-01-15 14:16:00
8:36 AM,-16.6,-20.2,84,29.95,10.0,Calm,Calm,-,N/A,,Clear,0,2014-01-15 14:36:00
8:56 AM,-11.2,-14.8,84,29.94,10.0,Calm,Calm,-,N/A,,Clear,0,2014-01-15 14:56:00
9:16 AM,-7.6,-11.2,84,29.94,10.0,Calm,Calm,-,N/A,,Clear,0,2014-01-15 15:16:00
9:36 AM,-4.0,-7.6,85,29.93,10.0,Calm,Calm,-,N/A,,Clear,0,2014-01-15 15:36:00
9:56 AM,-0.4,-2.2,92,29.90,10.0,SSE,3.5,-,N/A,,Clear,160,2014-01-15 15:56:00
10:16 AM,1.4,-0.4,92,29.88,10.0,South,4.6,-,N/A,,Clear,180,2014-01-15 16:16:00
10:36 AM,3.2,-0.4,85,29.86,10.0,South,6.9,-,N/A,,Clear,170,2014-01-15 16:36:00
10:56 AM,5.0,-0.4,78,29.83,10.0,South,6.9,-,N/A,,Clear,170,2014-01-15 16:56:00
11:16 AM,6.8,1.4,79,29.81,10.0,South,10.4,-,N/A,,Clear,170,2014-01-15 17:16:00
11:36 AM,8.6,1.4,73,29.79,10.0,South,9.2,-,N/A,,Clear,170,2014-01-15 17:36:00
11:56 AM,8.6,1.4,73,29.77,10.0,South,8.1,-,N/A,,Mostly Cloudy,180,2014-01-15 17:56:00
12:16 PM,8.6,1.4,73,29.75,10.0,SSE,11.5,-,N/A,,Mostly Cloudy,160,2014-01-15 18:16:00
12:36 PM,8.6,1.4,73,29.73,10.0,South,10.4,-,N/A,,Overcast,170,2014-01-15 18:36:00
12:56 PM,8.6,1.4,73,29.71,10.0,South,10.4,16.1,N/A,,Overcast,180,2014-01-15 18:56:00
1:16 PM,8.6,1.4,73,29.69,10.0,SSE,10.4,-,N/A,,Overcast,160,2014-01-15 19:16:00
1:36 PM,8.6,1.4,73,29.66,10.0,SSE,10.4,16.1,N/A,,Overcast,160,2014-01-15 19:36:00
1:56 PM,8.6,1.4,73,29.65,10.0,SSE,13.8,19.6,N/A,,Overcast,160,2014-01-15 19:56:00
2:16 PM,10.4,1.4,67,29.61,10.0,SSE,15.0,20.7,N/A,,Overcast,160,2014-01-15 20:16:00
2:36 PM,8.6,1.4,73,29.57,2.0,SSE,17.3,23.0,N/A,Snow,Light Snow,150,2014-01-15 20:36:00
2:56 PM,8.6,3.2,79,29.55,0.8,SSE,15.0,25.3,N/A,Snow,Light Snow,160,2014-01-15 20:56:00
3:16 PM,8.6,3.2,79,29.53,5.0,South,15.0,20.7,N/A,Snow,Light Snow,170,2014-01-15 21:16:00
3:36 PM,8.6,3.2,79,29.52,1.2,South,15.0,21.9,N/A,Snow,Light Snow,170,2014-01-15 21:36:00
3:56 PM,8.6,5.0,85,29.49,1.0,South,15.0,21.9,N/A,Snow,Light Snow,170,2014-01-15 21:56:00
4:16 PM,8.6,6.8,92,29.49,1.0,South,9.2,21.9,N/A,Snow,Light Snow,180,2014-01-15 22:16:00
4:36 PM,10.4,6.8,85,29.46,4.0,South,15.0,20.7,N/A,Snow,Light Snow,180,2014-01-15 22:36:00
4:56 PM,10.4,6.8,85,29.44,7.0,South,12.7,24.2,N/A,Snow,Light Snow,180,2014-01-15 22:56:00
5:16 PM,10.4,6.8,85,29.43,5.0,South,15.0,23.0,N/A,Snow,Light Snow,180,2014-01-15 23:16:00
5:36 PM,10.4,6.8,85,29.43,5.0,South,12.7,20.7,N/A,Snow,Light Snow,190,2014-01-15 23:36:00
5:56 PM,12.2,8.6,85,29.40,7.0,South,15.0,23.0,N/A,Snow,Light Snow,180,2014-01-15 23:56:00
6:16 PM,12.2,8.6,85,29.40,7.0,South,13.8,21.9,N/A,Snow,Light Snow,180,2014-01-16 00:16:00
6:36 PM,12.2,8.6,85,29.36,10.0,South,11.5,17.3,N/A,Snow,Light Snow,190,2014-01-16 00:36:00
6:56 PM,12.2,10.4,92,29.35,10.0,South,9.2,17.3,N/A,,Overcast,180,2014-01-16 00:56:00
7:16 PM,14.0,10.4,86,29.34,10.0,South,11.5,18.4,N/A,Snow,Light Snow,180,2014-01-16 01:16:00
7:36 PM,14.0,10.4,86,29.33,7.0,South,11.5,18.4,N/A,Snow,Light Snow,180,2014-01-16 01:36:00
7:56 PM,15.8,12.2,86,29.32,10.0,South,9.2,-,N/A,,Overcast,190,2014-01-16 01:56:00
8:16 PM,15.8,12.2,86,29.30,10.0,South,9.2,-,N/A,,Mostly Cloudy,190,2014-01-16 02:16:00
8:36 PM,15.8,12.2,86,29.29,10.0,South,10.4,16.1,N/A,,Overcast,180,2014-01-16 02:36:00
8:56 PM,15.8,12.2,86,29.27,10.0,South,8.1,-,N/A,,Overcast,190,2014-01-16 02:56:00
9:16 PM,17.6,14.0,86,29.27,10.0,SSW,6.9,-,N/A,,Overcast,200,2014-01-16 03:16:00
9:36 PM,17.6,14.0,86,29.26,10.0,SSW,4.6,-,N/A,,Overcast,200,2014-01-16 03:36:00
9:56 PM,17.6,15.8,93,29.25,10.0,SSW,4.6,-,N/A,,Overcast,210,2014-01-16 03:56:00
10:16 PM,19.4,15.8,86,29.25,10.0,SSW,5.8,-,N/A,,Overcast,210,2014-01-16 04:16:00
10:36 PM,21.2,17.6,86,29.24,10.0,Calm,Calm,-,N/A,,Overcast,0,2014-01-16 04:36:00
10:56 PM,21.2,19.4,93,29.24,10.0,South,3.5,-,N/A,,Overcast,190,2014-01-16 04:56:00
11:16 PM,23.0,19.4,86,29.24,10.0,SSW,3.5,-,N/A,,Overcast,210,2014-01-16 05:16:00
11:36 PM,24.8,21.2,86,29.24,10.0,Calm,Calm,-,N/A,,Overcast,0,2014-01-16 05:36:00
11:56 PM,24.8,21.2,86,29.23,10.0,WSW,3.5,-,N/A,,Overcast,250,2014-01-16 05:56:00